Change the Weather History Date:

Monday, March 24, 2014

  Actual Average Record
Temperature  
Mean Temperature 78 °F -  
Max Temperature 87 °F 86 °F 100 °F (2007)
Min Temperature 68 °F 62 °F 60 °F (2009)
Cooling Degree Days 12    
Growing Degree Days 28 (Base 50)    
Moisture  
Dew Point 66 °F    
Average Humidity 67    
Maximum Humidity 88    
Minimum Humidity 42    
Precipitation  
Precipitation 0.00 in - - ()
Sea Level Pressure  
Sea Level Pressure 30.06 in    
Wind  
Wind Speed 7 mph ()    
Max Wind Speed 14 mph    
Max Gust Speed -    
Visibility 6.1 miles    
Events      
Averages and records for this station are not official NWS values.
T = Trace of Precipitation, MM = Missing Value Source: Averaged Metar Reports

Daily Weather History Graph

Daily Weather History Graph

Search for Another Location

Airport or City:

Trip Planner

Search our weather history database for the weather conditions in past years. The results will help you decide how hot, cold, wet, or windy it might be!

Date:

Astronomy

Mar. 24, 2014 Rise Set
Actual Time 6:31 AM CAT 6:33 PM CAT
Civil Twilight 6:09 AM CAT 6:55 PM CAT
Nautical Twilight 5:43 AM CAT 7:21 PM CAT
Astronomical Twilight 5:17 AM CAT 7:46 PM CAT
Moon No Moon Rise 1:23 PM CAT (3/24)
Length of Visible Light 12h 46m
Length of Day
12h 02m
Last Quarter, 46% of the Moon is Illuminated
Mar 24
Last Quarter
Mar 30
New
Apr 7
First Quarter
Apr 15
Full
Apr 22
Last Quarter

Hourly Weather History & Observations

Time (CAT) Temp. Heat Index Dew Point Humidity Pressure Visibility Wind Dir Wind Speed Gust Speed Precip Events Conditions
12:00 AM 71.6 °F - 64.4 °F 78% 30.06 in - SE 8.1 mph - N/A   Clear
1:00 AM 71.6 °F - 64.4 °F 78% 30.04 in - ESE 9.2 mph - N/A   Clear
2:00 AM 71.6 °F - 64.4 °F 78% 30.04 in - ESE 8.1 mph - N/A   Clear
5:00 AM 69.8 °F - 64.4 °F 83% 30.04 in - East 10.4 mph - N/A   Clear
6:00 AM 68.0 °F - 64.4 °F 88% 30.06 in - East 9.2 mph - N/A   Clear
7:00 AM 68.0 °F - 62.6 °F 83% 30.06 in - ESE 8.1 mph - N/A   Clear
8:00 AM 71 °F - 63 °F 70%  in 6 mi East 11.5 mph - -   Partly Cloudy
8:00 AM 71.6 °F - 62.6 °F 73% 30.09 in - East 11.5 mph - N/A   Clear
9:00 AM 73.4 °F - 64.4 °F 73% 30.12 in - East 13.8 mph - N/A   Clear
11:00 AM 80 °F - 66 °F 53%  in 6 mi ENE 9.2 mph - -   Partly Cloudy
11:00 AM 80.6 °F 82.7 °F 66.2 °F 61% 30.09 in - ENE 9.2 mph - N/A   Clear
12:00 PM 82.4 °F 84.6 °F 66.2 °F 58% 30.09 in 6.2 mi NE 5.8 mph - N/A   Partly Cloudy
1:00 PM 84.2 °F 86.6 °F 66.2 °F 55% 30.06 in 6.2 mi NE 6.9 mph - N/A   Partly Cloudy
2:00 PM 85 °F - 65 °F 42%  in 6 mi East 8.1 mph - -   Partly Cloudy
2:00 PM 86.0 °F 87.3 °F 64.4 °F 48% 30.06 in 6.2 mi East 8.1 mph - N/A   Partly Cloudy
3:00 PM 87.8 °F 89.4 °F 64.4 °F 46% 30.04 in 6.2 mi NNE 8.1 mph - N/A   Partly Cloudy
5:00 PM 84.2 °F 86.6 °F 66.2 °F 55% 30.01 in 6.2 mi ESE 6.9 mph - N/A   Partly Cloudy
6:00 PM 84.2 °F 86.6 °F 66.2 °F 55% 30.01 in 6.2 mi East 4.6 mph - N/A   Partly Cloudy
7:00 PM 80.6 °F 83.2 °F 68.0 °F 65% 30.04 in 6.2 mi SE 3.5 mph - N/A   Partly Cloudy
8:00 PM 80 °F - 68 °F 60%  in 6 mi NNE 3.5 mph - -   Partly Cloudy
8:00 PM 80.6 °F 83.2 °F 68.0 °F 65% 30.04 in 6.2 mi NNE 3.5 mph - N/A   Scattered Clouds
9:00 PM 77.0 °F - 68.0 °F 74% 30.06 in 6.2 mi Variable 2.3 mph - N/A   Scattered Clouds
10:00 PM 75.2 °F - 68.0 °F 78% 30.06 in - SE 3.5 mph - N/A   Clear
11:00 PM 75 °F - 67 °F 71%  in 6 mi East 5.8 mph - -   Partly Cloudy
11:00 PM 75.2 °F - 66.2 °F 73% 30.09 in - East 8.1 mph - N/A   Clear